Date,TemperatureHighF,TemperatureAvgF,TemperatureLowF,DewpointHighF,DewpointAvgF,DewpointLowF,HumidityHigh,HumidityAvg,HumidityLow,PressureMaxIn,PressureMinIn,WindSpeedMaxMPH,WindSpeedAvgMPH,GustSpeedMaxMPH,PrecipitationSumIn
2013-10-1,81.6,64.6,52.5,65.7,59.1,52.2,99,85,50,30.13,30.02,7,0,7,0.00
2013-10-2,85.3,65.6,53.9,66.1,59.9,53.6,100,84,48,30.15,30.05,4,0,4,0.00
2013-10-3,84.1,67.8,57.8,68.5,61.5,57.1,100,83,49,30.13,30.04,7,0,9,0.00
2013-10-4,84.4,68.5,57.7,68.9,63.3,57.4,100,85,51,30.14,30.05,4,0,5,0.00
2013-10-5,86.1,69.7,58.3,69.9,64.2,58.0,100,85,52,30.13,30.01,4,0,5,0.00
2013-10-6,82.1,69.4,59.4,70.3,64.1,59.1,100,85,57,30.03,29.88,6,0,7,0.00
2013-10-7,72.0,66.7,58.1,70.4,64.5,52.6,99,93,76,30.01,29.78,11,0,14,1.35
2013-10-8,67.8,59.0,52.7,53.5,50.2,47.8,87,73,52,30.22,30.00,12,1,14,0.00
2013-10-9,70.1,57.6,47.6,54.5,49.7,45.4,92,76,53,30.24,30.13,8,1,8,0.00
2013-10-10,70.2,60.2,48.7,62.6,55.8,47.2,96,86,73,30.14,29.97,8,0,9,0.00
2013-10-11,74.3,63.5,57.9,63.4,59.3,55.7,94,87,58,29.99,29.92,5,0,7,0.00
2013-10-12,71.5,63.8,56.4,64.2,61.0,55.8,99,91,73,30.08,29.95,4,0,4,0.00
2013-10-13,69.5,64.4,60.0,63.7,61.4,59.1,98,90,79,30.22,30.08,8,0,9,0.00
2013-10-14,69.3,61.5,55.6,63.3,59.3,55.0,98,93,78,30.25,30.16,6,0,9,0.05
2013-10-15,72.5,61.5,55.1,58.7,56.1,54.0,98,84,54,30.21,30.05,5,0,7,0.00
2013-10-16,72.2,61.5,51.6,62.3,57.7,51.1,99,88,68,30.08,29.95,6,0,6,0.00
2013-10-17,69.7,63.4,58.0,64.6,61.8,57.4,99,95,80,29.97,29.83,7,0,7,0.07
2013-10-18,68.0,58.7,50.0,62.6,54.2,49.7,99,87,56,30.04,29.89,6,0,6,0.01
2013-10-19,62.8,56.5,51.0,60.8,55.6,50.5,99,97,90,29.97,29.83,4,0,4,0.02
2013-10-20,63.7,50.6,42.1,50.9,43.0,38.0,99,78,41,30.12,29.92,5,0,6,0.01
2013-10-21,66.2,51.1,37.1,54.7,46.7,36.8,100,87,59,30.18,30.01,7,0,9,0.00
2013-10-22,67.8,58.4,51.3,58.7,54.6,50.5,99,88,64,30.02,29.78,6,0,6,0.00
2013-10-23,63.4,53.7,41.5,56.4,43.6,32.3,99,72,37,30.04,29.72,15,2,18,0.00
2013-10-24,57.1,44.5,31.8,41.8,35.6,30.3,97,73,45,30.20,30.03,10,1,11,0.00
2013-10-25,50.0,41.1,31.9,39.5,32.8,28.5,97,74,47,30.41,30.20,10,1,13,0.00
2013-10-26,55.4,41.5,26.4,38.2,32.2,25.4,97,73,44,30.40,30.09,10,1,11,0.00
2013-10-27,66.5,51.4,37.5,49.5,43.5,36.4,98,77,49,30.14,30.05,10,0,11,0.00
2013-10-28,64.7,53.2,45.1,55.7,49.5,44.5,98,88,66,30.27,30.12,1,0,1,0.00
2013-10-29,72.0,57.9,48.7,58.0,53.0,48.2,99,85,57,30.34,30.24,5,0,5,0.00
2013-10-30,76.2,61.1,49.8,60.6,55.3,49.3,99,83,54,30.28,30.15,9,0,10,0.00
2013-10-31,68.2,61.3,53.5,64.2,57.4,52.6,98,88,75,30.17,29.87,10,0,10,0.00